CST,Max TemperatureF,Mean TemperatureF,Min TemperatureF,Max Dew PointF,MeanDew PointF,Min DewpointF,Max Humidity, Mean Humidity, Min Humidity, Max Sea Level PressureIn, Mean Sea Level PressureIn, Min Sea Level PressureIn, Max VisibilityMiles, Mean VisibilityMiles, Min VisibilityMiles, Max Wind SpeedMPH, Mean Wind SpeedMPH, Max Gust SpeedMPH,PrecipitationIn, CloudCover, Events, WindDirDegrees
2012-11-1,57,45,33,40,32,25,81,60,35,30.02,29.95,29.88,10,10,10,10,5,,0.00,3,,244
2012-11-2,55,46,38,38,35,32,82,65,43,30.08,30.02,29.88,10,10,2,9,5,,0.00,0,,20
2012-11-3,54,46,38,39,36,32,92,68,51,30.17,30.08,30.02,10,10,5,14,8,21,0.00,4,,52
2012-11-4,51,42,32,37,34,31,96,77,50,30.25,30.20,30.16,10,8,2,9,3,,0.00,2,,3
2012-11-5,44,41,38,38,37,35,91,81,73,30.17,30.12,30.08,10,8,2,8,3,,0.01,7,Rain,97
2012-11-6,48,43,37,43,39,35,95,83,65,30.07,30.00,29.92,10,6,0,9,3,,0.10,7,Fog-Rain,234
2012-11-7,49,43,37,41,39,36,96,82,64,30.19,30.05,29.92,10,8,0,14,5,17,0.02,8,Fog-Rain,320
2012-11-8,54,42,31,42,36,30,98,78,54,30.26,30.18,30.10,10,7,0,10,3,,0.00,1,Fog,165
2012-11-9,68,56,43,53,45,37,81,67,51,30.11,30.05,29.98,10,10,10,18,10,26,0.00,1,,167
2012-11-10,72,64,55,54,48,44,69,57,43,30.08,30.04,29.99,10,10,10,24,15,30,0.00,0,,176
2012-11-11,68,59,50,56,51,48,94,71,56,30.05,29.98,29.85,10,9,4,25,16,37,0.70,4,Rain-Thunderstorm,181
2012-11-12,47,40,32,45,29,23,91,71,44,30.44,30.29,30.03,10,10,5,21,13,28,0.30,2,Rain,267
2012-11-13,45,36,28,31,27,21,92,71,40,30.54,30.48,30.43,10,10,10,7,3,,0.00,0,,296
2012-11-14,46,38,29,31,28,23,92,74,41,30.51,30.44,30.36,10,10,10,7,2,,0.00,0,,70
2012-11-15,49,38,27,32,30,26,95,79,42,30.40,30.36,30.33,10,8,4,4,0,,0.00,0,,318
2012-11-16,55,42,29,34,30,26,96,73,33,30.47,30.43,30.38,10,8,4,7,1,,0.00,0,,39
2012-11-17,58,43,28,37,32,27,94,75,36,30.53,30.45,30.41,10,8,3,9,1,,0.00,0,,90
2012-11-18,60,44,29,38,33,28,96,72,35,30.42,30.37,30.32,10,9,5,6,1,,0.00,0,,138
2012-11-19,59,46,34,43,37,32,93,68,45,30.33,30.24,30.13,10,10,10,10,3,,0.00,2,,167
2012-11-20,61,53,45,49,46,41,87,71,62,30.18,30.12,30.07,10,10,7,9,5,,0.00,5,,261
2012-11-21,60,50,39,51,44,38,100,88,61,30.29,30.22,30.17,10,3,0,5,1,,0.00,2,Fog,222
2012-11-22,64,54,43,52,47,41,93,76,50,30.18,30.07,29.98,10,7,2,17,10,25,0.14,2,Rain-Thunderstorm,180
2012-11-23,57,44,31,52,30,20,88,63,45,30.32,30.22,30.04,10,10,10,26,14,33,0.00,1,,299
2012-11-24,35,30,26,26,22,19,83,70,58,30.35,30.24,30.06,10,10,10,12,7,16,0.00,0,,262
2012-11-25,53,42,32,35,30,24,93,66,42,30.06,29.98,29.92,10,10,10,14,8,16,0.00,0,,203
2012-11-26,47,40,32,32,29,25,90,69,52,30.34,30.18,30.06,10,10,10,20,7,25,0.00,5,,20
2012-11-27,39,32,26,28,24,21,93,76,55,30.44,30.37,30.33,10,9,5,13,7,18,0.00,0,,333
2012-11-28,47,36,26,31,26,24,93,72,42,30.45,30.38,30.34,10,9,5,8,2,,0.00,0,,188
2012-11-29,55,42,30,34,30,26,87,61,39,30.33,30.23,30.14,10,10,7,16,8,23,0.00,0,,164
2012-11-30,61,52,42,45,37,30,87,61,46,30.16,30.13,30.08,10,10,10,15,11,21,0.00,0,,185